TIMESTAMP,half deep,one deep,one point 5 deep,three deep,three point 5 deep,four deep,five deep,ten deep,fifteen deep,twenty deep,twenty five deep,thirty deep,,,,,,,,,,,,,,,,,,
depth,0.5,1,1.5,3,3.5,4,5,10,15,20,25,30,,,,,,,,,,,,,,,,,,
,,,,,,,,,,,,,,,,,,,,,,,,,,,,,,
11/1/06 0:00,2.087,2.153,2.163,1.99,1.962,1.886,1.66,0.72,0.018,-0.267,-0.3,-0.356,,,,,,,,,,,,,,,,,,
11/2/06 0:00,2.022,2.093,2.11,1.957,1.932,1.86,1.644,0.72,0.02,-0.265,-0.3,-0.356,,,,,,,,,,,,,,,,,,
11/3/06 0:00,1.964,2.034,2.055,1.919,1.9,1.834,1.631,0.722,0.021,-0.265,-0.3,-0.356,,,,,,,,,,,,,,,,,,
11/4/06 0:00,1.899,1.982,2.005,1.879,1.865,1.812,1.617,0.724,0.021,-0.266,-0.301,-0.357,,,,,,,,,,,,,,,,,,
11/5/06 0:00,1.835,1.924,1.955,1.84,1.833,1.786,1.598,0.726,0.021,-0.267,-0.302,-0.358,,,,,,,,,,,,,,,,,,
11/6/06 0:00,1.783,1.864,1.901,1.809,1.806,1.757,1.581,0.728,0.023,-0.267,-0.302,-0.358,,,,,,,,,,,,,,,,,,
11/7/06 0:00,1.725,1.815,1.85,1.773,1.775,1.729,1.562,0.729,0.023,-0.267,-0.302,-0.358,,,,,,,,,,,,,,,,,,
11/8/06 0:00,1.669,1.764,1.806,1.735,1.742,1.704,1.541,0.732,0.025,-0.267,-0.301,-0.358,,,,,,,,,,,,,,,,,,
11/9/06 0:00,1.619,1.712,1.757,1.7,1.71,1.674,1.52,0.73,0.024,-0.269,-0.303,-0.359,,,,,,,,,,,,,,,,,,
11/10/06 0:00,1.568,1.662,1.71,1.663,1.678,1.646,1.498,0.729,0.024,-0.269,-0.302,-0.359,,,,,,,,,,,,,,,,,,
11/11/06 0:00,1.515,1.617,1.664,1.631,1.646,1.622,1.478,0.729,0.026,-0.269,-0.303,-0.36,,,,,,,,,,,,,,,,,,
11/12/06 0:00,1.468,1.576,1.627,1.604,1.623,1.601,1.462,0.735,0.032,-0.264,-0.297,-0.355,,,,,,,,,,,,,,,,,,
11/13/06 0:00,1.421,1.53,1.587,1.571,1.596,1.575,1.443,0.735,0.033,-0.263,-0.296,-0.354,,,,,,,,,,,,,,,,,,
11/14/06 0:00,1.373,1.481,1.543,1.536,1.566,1.547,1.424,0.732,0.034,-0.263,-0.296,-0.354,,,,,,,,,,,,,,,,,,
11/15/06 0:00,1.325,1.436,1.498,1.5,1.534,1.518,1.405,0.73,0.034,-0.263,-0.296,-0.354,,,,,,,,,,,,,,,,,,
11/16/06 0:00,1.275,1.393,1.455,1.465,1.502,1.49,1.382,0.729,0.035,-0.263,-0.296,-0.354,,,,,,,,,,,,,,,,,,
11/17/06 0:00,1.232,1.347,1.414,1.433,1.47,1.461,1.358,0.725,0.033,-0.265,-0.297,-0.355,,,,,,,,,,,,,,,,,,
11/18/06 0:00,1.188,1.301,1.373,1.402,1.44,1.434,1.337,0.722,0.033,-0.265,-0.298,-0.356,,,,,,,,,,,,,,,,,,
11/19/06 0:00,1.142,1.259,1.332,1.369,1.412,1.409,1.316,0.718,0.033,-0.265,-0.298,-0.355,,,,,,,,,,,,,,,,,,
11/20/06 0:00,1.094,1.222,1.291,1.336,1.384,1.383,1.294,0.716,0.034,-0.264,-0.298,-0.355,,,,,,,,,,,,,,,,,,
11/21/06 0:00,1.051,1.181,1.252,1.303,1.352,1.355,1.27,0.712,0.034,-0.265,-0.299,-0.356,,,,,,,,,,,,,,,,,,
11/22/06 0:00,1.011,1.138,1.217,1.27,1.324,1.328,1.25,0.707,0.034,-0.266,-0.299,-0.356,,,,,,,,,,,,,,,,,,
11/23/06 0:00,0.965,1.093,1.178,1.242,1.293,1.301,1.233,0.703,0.034,-0.266,-0.299,-0.356,,,,,,,,,,,,,,,,,,
11/24/06 0:00,0.926,1.056,1.141,1.215,1.266,1.274,1.215,0.701,0.035,-0.265,-0.297,-0.355,,,,,,,,,,,,,,,,,,
11/25/06 0:00,0.883,1.019,1.099,1.184,1.24,1.249,1.193,0.694,0.035,-0.266,-0.299,-0.355,,,,,,,,,,,,,,,,,,
11/26/06 0:00,0.844,0.979,1.062,1.152,1.214,1.227,1.171,0.69,0.034,-0.265,-0.298,-0.356,,,,,,,,,,,,,,,,,,
11/27/06 0:00,0.807,0.94,1.03,1.12,1.187,1.202,1.149,0.685,0.034,-0.265,-0.298,-0.355,,,,,,,,,,,,,,,,,,
11/28/06 0:00,0.767,0.903,0.993,1.088,1.158,1.176,1.126,0.68,0.034,-0.265,-0.298,-0.355,,,,,,,,,,,,,,,,,,
11/29/06 0:00,0.728,0.868,0.958,1.06,1.129,1.151,1.103,0.676,0.035,-0.264,-0.297,-0.355,,,,,,,,,,,,,,,,,,
11/30/06 0:00,0.687,0.833,0.921,1.033,1.098,1.122,1.078,0.668,0.033,-0.266,-0.299,-0.356,,,,,,,,,,,,,,,,,,
12/1/06 0:00,0.65,0.797,0.887,1.003,1.069,1.093,1.057,0.662,0.032,-0.267,-0.3,-0.357,,,,,,,,,,,,,,,,,,
12/2/06 0:00,0.616,0.76,0.854,0.971,1.045,1.068,1.041,0.658,0.032,-0.267,-0.301,-0.356,,,,,,,,,,,,,,,,,,
12/3/06 0:00,0.582,0.727,0.826,0.946,1.022,1.048,1.024,0.654,0.033,-0.264,-0.297,-0.354,,,,,,,,,,,,,,,,,,
12/4/06 0:00,0.546,0.691,0.792,0.917,0.995,1.025,1,0.648,0.032,-0.266,-0.299,-0.355,,,,,,,,,,,,,,,,,,
12/5/06 0:00,0.511,0.657,0.758,0.886,0.965,0.997,0.975,0.64,0.029,-0.267,-0.302,-0.358,,,,,,,,,,,,,,,,,,
12/6/06 0:00,0.48,0.63,0.727,0.862,0.941,0.973,0.956,0.636,0.03,-0.266,-0.299,-0.357,,,,,,,,,,,,,,,,,,
12/7/06 0:00,0.451,0.599,0.696,0.837,0.915,0.949,0.936,0.628,0.029,-0.268,-0.3,-0.357,,,,,,,,,,,,,,,,,,
12/8/06 0:00,0.432,0.574,0.671,0.818,0.896,0.932,0.921,0.628,0.033,-0.26,-0.294,-0.353,,,,,,,,,,,,,,,,,,
12/9/06 0:00,0.399,0.545,0.642,0.788,0.869,0.905,0.898,0.615,0.027,-0.261,-0.296,-0.354,,,,,,,,,,,,,,,,,,
12/10/06 0:00,0.383,0.524,0.622,0.772,0.853,0.89,0.886,0.617,0.034,-0.254,-0.287,-0.346,,,,,,,,,,,,,,,,,,
12/11/06 0:00,0.357,0.496,0.595,0.745,0.827,0.866,0.865,0.608,0.032,-0.255,-0.288,-0.347,,,,,,,,,,,,,,,,,,
12/12/06 0:00,0.326,0.467,0.565,0.714,0.8,0.839,0.841,0.598,0.028,-0.261,-0.293,-0.353,,,,,,,,,,,,,,,,,,
12/13/06 0:00,0.3,0.446,0.54,0.688,0.779,0.821,0.825,0.59,0.029,-0.261,-0.296,-0.35,,,,,,,,,,,,,,,,,,
12/14/06 0:00,0.285,0.432,0.522,0.673,0.762,0.806,0.813,0.589,0.034,-0.254,-0.289,-0.344,,,,,,,,,,,,,,,,,,
12/15/06 0:00,0.266,0.408,0.498,0.652,0.738,0.782,0.792,0.581,0.034,-0.257,-0.291,-0.345,,,,,,,,,,,,,,,,,,
12/16/06 0:00,0.248,0.388,0.479,0.63,0.717,0.761,0.773,0.575,0.032,-0.255,-0.289,-0.345,,,,,,,,,,,,,,,,,,
12/17/06 0:00,0.226,0.37,0.459,0.608,0.701,0.746,0.758,0.572,0.029,-0.253,-0.286,-0.345,,,,,,,,,,,,,,,,,,
12/18/06 0:00,0.211,0.354,0.442,0.593,0.683,0.729,0.744,0.569,0.031,-0.248,-0.282,-0.342,,,,,,,,,,,,,,,,,,
12/19/06 0:00,0.189,0.329,0.416,0.569,0.656,0.704,0.72,0.556,0.023,-0.253,-0.288,-0.346,,,,,,,,,,,,,,,,,,
12/20/06 0:00,0.168,0.305,0.394,0.545,0.632,0.68,0.697,0.543,0.019,-0.259,-0.292,-0.351,,,,,,,,,,,,,,,,,,
12/21/06 0:00,0.152,0.286,0.377,0.524,0.613,0.66,0.679,0.536,0.017,-0.259,-0.292,-0.35,,,,,,,,,,,,,,,,,,
12/22/06 0:00,0.132,0.265,0.359,0.502,0.592,0.639,0.66,0.526,0.014,-0.26,-0.294,-0.353,,,,,,,,,,,,,,,,,,
12/23/06 0:00,0.11,0.245,0.339,0.483,0.572,0.621,0.641,0.518,0.017,-0.261,-0.292,-0.352,,,,,,,,,,,,,,,,,,
12/24/06 0:00,0.097,0.23,0.325,0.467,0.559,0.605,0.626,0.513,0.014,-0.261,-0.294,-0.352,,,,,,,,,,,,,,,,,,
12/25/06 0:00,0.075,0.208,0.303,0.445,0.537,0.584,0.607,0.5,0.009,-0.265,-0.298,-0.356,,,,,,,,,,,,,,,,,,
12/26/06 0:00,0.059,0.191,0.286,0.43,0.524,0.57,0.593,0.496,0.01,-0.264,-0.296,-0.354,,,,,,,,,,,,,,,,,,
12/27/06 0:00,0.042,0.175,0.269,0.412,0.504,0.552,0.576,0.487,0.007,-0.263,-0.297,-0.355,,,,,,,,,,,,,,,,,,
12/28/06 0:00,0.034,0.167,0.261,0.405,0.497,0.546,0.57,0.488,0.015,-0.256,-0.286,-0.347,,,,,,,,,,,,,,,,,,
12/29/06 0:00,0.016,0.15,0.242,0.387,0.478,0.528,0.555,0.478,0.012,-0.257,-0.288,-0.347,,,,,,,,,,,,,,,,,,
12/30/06 0:00,-0.001,0.132,0.222,0.371,0.461,0.51,0.538,0.468,0.009,-0.257,-0.29,-0.35,,,,,,,,,,,,,,,,,,
12/31/06 0:00,-0.01,0.122,0.212,0.362,0.45,0.5,0.529,0.468,0.015,-0.251,-0.283,-0.344,,,,,,,,,,,,,,,,,,
1/1/07 0:00,-0.034,0.095,0.186,0.337,0.425,0.474,0.504,0.449,0.001,-0.262,-0.295,-0.353,,,,,,,,,,,,,,,,,,
1/2/07 0:00,-0.041,0.088,0.179,0.329,0.418,0.467,0.497,0.449,0.008,-0.252,-0.286,-0.344,,,,,,,,,,,,,,,,,,
1/3/07 0:00,-0.064,0.064,0.156,0.306,0.396,0.445,0.475,0.434,0,-0.261,-0.294,-0.352,,,,,,,,,,,,,,,,,,
1/4/07 0:00,-0.077,0.051,0.142,0.292,0.382,0.43,0.461,0.427,-0.001,-0.261,-0.294,-0.352,,,,,,,,,,,,,,,,,,
1/5/07 0:00,-0.089,0.037,0.128,0.278,0.369,0.417,0.448,0.421,-0.001,-0.259,-0.292,-0.352,,,,,,,,,,,,,,,,,,
1/6/07 0:00,-0.096,0.031,0.121,0.27,0.362,0.41,0.442,0.421,0.005,-0.253,-0.286,-0.343,,,,,,,,,,,,,,,,,,
1/7/07 0:00,-0.108,0.018,0.109,0.254,0.349,0.395,0.429,0.413,0.003,-0.252,-0.284,-0.344,,,,,,,,,,,,,,,,,,
1/8/07 0:00,-0.12,0.005,0.096,0.24,0.335,0.383,0.416,0.406,0.002,-0.252,-0.285,-0.343,,,,,,,,,,,,,,,,,,
1/9/07 0:00,-0.131,-0.007,0.083,0.226,0.322,0.37,0.403,0.401,0,-0.253,-0.286,-0.344,,,,,,,,,,,,,,,,,,
1/10/07 0:00,-0.142,-0.018,0.071,0.213,0.309,0.357,0.39,0.394,-0.002,-0.252,-0.286,-0.344,,,,,,,,,,,,,,,,,,
1/11/07 0:00,-0.153,-0.027,0.061,0.201,0.295,0.347,0.38,0.387,-0.002,-0.252,-0.286,-0.343,,,,,,,,,,,,,,,,,,
1/12/07 0:00,-0.168,-0.042,0.044,0.183,0.276,0.326,0.362,0.375,-0.01,-0.259,-0.293,-0.351,,,,,,,,,,,,,,,,,,
1/13/07 0:00,-0.187,-0.061,0.026,0.162,0.254,0.302,0.339,0.357,-0.021,-0.271,-0.303,-0.361,,,,,,,,,,,,,,,,,,
1/14/07 0:00,-0.195,-0.068,0.016,0.151,0.242,0.289,0.327,0.348,-0.023,-0.271,-0.304,-0.362,,,,,,,,,,,,,,,,,,
1/15/07 0:00,-0.199,-0.073,0.013,0.142,0.234,0.281,0.315,0.343,-0.023,-0.269,-0.302,-0.358,,,,,,,,,,,,,,,,,,
1/16/07 0:00,-0.204,-0.077,0.008,0.133,0.224,0.271,0.305,0.337,-0.023,-0.268,-0.3,-0.357,,,,,,,,,,,,,,,,,,
1/17/07 0:00,-0.203,-0.076,0.008,0.131,0.219,0.267,0.3,0.335,-0.019,-0.262,-0.295,-0.351,,,,,,,,,,,,,,,,,,
1/18/07 0:00,-0.212,-0.084,-0.002,0.118,0.206,0.254,0.286,0.325,-0.023,-0.265,-0.299,-0.355,,,,,,,,,,,,,,,,,,
1/19/07 0:00,-0.221,-0.093,-0.011,0.106,0.195,0.241,0.273,0.313,-0.029,-0.269,-0.302,-0.359,,,,,,,,,,,,,,,,,,
1/20/07 0:00,-0.225,-0.096,-0.017,0.099,0.187,0.232,0.263,0.306,-0.03,-0.269,-0.302,-0.358,,,,,,,,,,,,,,,,,,
1/21/07 0:00,-0.227,-0.098,-0.018,0.093,0.179,0.226,0.256,0.302,-0.03,-0.266,-0.3,-0.356,,,,,,,,,,,,,,,,,,
1/22/07 0:00,-0.232,-0.1,-0.022,0.087,0.173,0.218,0.249,0.296,-0.029,-0.265,-0.298,-0.355,,,,,,,,,,,,,,,,,,
1/23/07 0:00,-0.237,-0.107,-0.028,0.077,0.163,0.208,0.238,0.288,-0.032,-0.266,-0.3,-0.357,,,,,,,,,,,,,,,,,,
1/24/07 0:00,-0.235,-0.102,-0.025,0.079,0.163,0.208,0.238,0.29,-0.025,-0.258,-0.291,-0.348,,,,,,,,,,,,,,,,,,
1/25/07 0:00,-0.241,-0.108,-0.032,0.07,0.154,0.198,0.227,0.283,-0.03,-0.26,-0.294,-0.35,,,,,,,,,,,,,,,,,,
1/26/07 0:00,-0.241,-0.106,-0.032,0.071,0.152,0.196,0.224,0.283,-0.025,-0.254,-0.288,-0.344,,,,,,,,,,,,,,,,,,
1/27/07 0:00,-0.253,-0.118,-0.042,0.056,0.138,0.18,0.209,0.269,-0.034,-0.262,-0.296,-0.352,,,,,,,,,,,,,,,,,,
1/28/07 0:00,-0.259,-0.123,-0.048,0.049,0.129,0.17,0.199,0.261,-0.036,-0.264,-0.297,-0.353,,,,,,,,,,,,,,,,,,
1/29/07 0:00,-0.269,-0.131,-0.057,0.04,0.118,0.161,0.187,0.251,-0.044,-0.266,-0.301,-0.358,,,,,,,,,,,,,,,,,,
1/30/07 0:00,-0.278,-0.135,-0.062,0.033,0.111,0.152,0.177,0.244,-0.045,-0.269,-0.302,-0.358,,,,,,,,,,,,,,,,,,
1/31/07 0:00,-0.282,-0.139,-0.067,0.026,0.104,0.144,0.169,0.238,-0.047,-0.268,-0.302,-0.36,,,,,,,,,,,,,,,,,,
2/1/07 0:00,-0.287,-0.14,-0.068,0.023,0.101,0.14,0.164,0.236,-0.046,-0.266,-0.3,-0.357,,,,,,,,,,,,,,,,,,
2/2/07 0:00,-0.288,-0.14,-0.068,0.022,0.098,0.137,0.162,0.233,-0.044,-0.263,-0.295,-0.353,,,,,,,,,,,,,,,,,,
2/3/07 0:00,-0.289,-0.138,-0.067,0.021,0.096,0.137,0.16,0.232,-0.04,-0.257,-0.291,-0.347,,,,,,,,,,,,,,,,,,
2/4/07 0:00,-0.297,-0.145,-0.074,0.012,0.088,0.126,0.148,0.221,-0.044,-0.261,-0.294,-0.35,,,,,,,,,,,,,,,,,,
2/5/07 0:00,-0.292,-0.138,-0.069,0.017,0.092,0.129,0.151,0.227,-0.036,-0.252,-0.285,-0.341,,,,,,,,,,,,,,,,,,
2/6/07 0:00,-0.297,-0.142,-0.072,0.011,0.085,0.123,0.143,0.219,-0.04,-0.253,-0.285,-0.342,,,,,,,,,,,,,,,,,,
2/7/07 0:00,-0.294,-0.137,-0.067,0.013,0.087,0.123,0.144,0.222,-0.032,-0.244,-0.276,-0.332,,,,,,,,,,,,,,,,,,
2/8/07 0:00,-0.296,-0.138,-0.071,0.008,0.083,0.12,0.139,0.217,-0.034,-0.243,-0.277,-0.333,,,,,,,,,,,,,,,,,,
2/9/07 0:00,-0.308,-0.147,-0.079,0,0.072,0.109,0.127,0.206,-0.042,-0.25,-0.283,-0.339,,,,,,,,,,,,,,,,,,
2/10/07 0:00,-0.322,-0.158,-0.092,-0.014,0.059,0.094,0.111,0.19,-0.052,-0.257,-0.291,-0.347,,,,,,,,,,,,,,,,,,
2/11/07 0:00,-0.33,-0.162,-0.095,-0.02,0.054,0.087,0.105,0.184,-0.053,-0.26,-0.291,-0.349,,,,,,,,,,,,,,,,,,
2/12/07 0:00,-0.331,-0.161,-0.094,-0.02,0.053,0.087,0.102,0.182,-0.051,-0.255,-0.289,-0.344,,,,,,,,,,,,,,,,,,
2/13/07 0:00,-0.335,-0.161,-0.094,-0.023,0.051,0.084,0.099,0.179,-0.051,-0.252,-0.285,-0.343,,,,,,,,,,,,,,,,,,
2/14/07 0:00,-0.338,-0.16,-0.095,-0.023,0.047,0.082,0.096,0.178,-0.048,-0.249,-0.283,-0.341,,,,,,,,,,,,,,,,,,
2/15/07 0:00,-0.353,-0.17,-0.104,-0.036,0.038,0.071,0.085,0.165,-0.056,-0.258,-0.289,-0.345,,,,,,,,,,,,,,,,,,
2/16/07 0:00,-0.358,-0.168,-0.102,-0.035,0.034,0.067,0.081,0.163,-0.054,-0.253,-0.286,-0.344,,,,,,,,,,,,,,,,,,
2/17/07 0:00,-0.374,-0.179,-0.112,-0.047,0.022,0.056,0.069,0.15,-0.064,-0.262,-0.294,-0.352,,,,,,,,,,,,,,,,,,
2/18/07 0:00,-0.384,-0.18,-0.114,-0.05,0.019,0.051,0.064,0.146,-0.064,-0.258,-0.293,-0.352,,,,,,,,,,,,,,,,,,
2/19/07 0:00,-0.391,-0.18,-0.112,-0.052,0.016,0.049,0.061,0.145,-0.062,-0.257,-0.29,-0.348,,,,,,,,,,,,,,,,,,
2/20/07 0:00,-0.401,-0.181,-0.115,-0.055,0.013,0.045,0.057,0.14,-0.064,-0.256,-0.29,-0.348,,,,,,,,,,,,,,,,,,
2/21/07 0:00,-0.409,-0.181,-0.114,-0.054,0.013,0.044,0.055,0.139,-0.062,-0.252,-0.286,-0.345,,,,,,,,,,,,,,,,,,
2/22/07 0:00,-0.423,-0.185,-0.119,-0.059,0.008,0.038,0.049,0.133,-0.064,-0.255,-0.288,-0.347,,,,,,,,,,,,,,,,,,
2/23/07 0:00,-0.437,-0.186,-0.121,-0.062,0.004,0.035,0.044,0.129,-0.066,-0.254,-0.288,-0.347,,,,,,,,,,,,,,,,,,
2/24/07 0:00,-0.455,-0.189,-0.123,-0.066,0,0.031,0.039,0.124,-0.066,-0.254,-0.287,-0.346,,,,,,,,,,,,,,,,,,
2/25/07 0:00,-0.478,-0.193,-0.125,-0.07,-0.004,0.027,0.033,0.12,-0.068,-0.254,-0.286,-0.346,,,,,,,,,,,,,,,,,,
2/26/07 0:00,-0.505,-0.197,-0.129,-0.073,-0.008,0.022,0.029,0.114,-0.07,-0.255,-0.289,-0.347,,,,,,,,,,,,,,,,,,
2/27/07 0:00,-0.536,-0.199,-0.13,-0.076,-0.011,0.02,0.026,0.111,-0.072,-0.254,-0.288,-0.347,,,,,,,,,,,,,,,,,,
2/28/07 0:00,-0.573,-0.205,-0.132,-0.08,-0.013,0.015,0.021,0.107,-0.071,-0.253,-0.288,-0.346,,,,,,,,,,,,,,,,,,
3/1/07 0:00,-0.614,-0.207,-0.135,-0.082,-0.017,0.012,0.017,0.102,-0.072,-0.253,-0.287,-0.348,,,,,,,,,,,,,,,,,,
3/2/07 0:00,-0.657,-0.215,-0.136,-0.085,-0.02,0.007,0.013,0.099,-0.075,-0.253,-0.288,-0.346,,,,,,,,,,,,,,,,,,
3/3/07 0:00,-0.701,-0.223,-0.141,-0.089,-0.025,0.004,0.008,0.094,-0.076,-0.255,-0.288,-0.346,,,,,,,,,,,,,,,,,,
3/4/07 0:00,-0.748,-0.231,-0.142,-0.091,-0.028,0.001,0.004,0.091,-0.078,-0.253,-0.287,-0.346,,,,,,,,,,,,,,,,,,
3/5/07 0:00,-0.795,-0.24,-0.145,-0.094,-0.03,-0.002,0.001,0.088,-0.077,-0.253,-0.287,-0.346,,,,,,,,,,,,,,,,,,
3/6/07 0:00,-0.841,-0.251,-0.149,-0.097,-0.032,-0.004,0,0.084,-0.077,-0.252,-0.285,-0.345,,,,,,,,,,,,,,,,,,
3/7/07 0:00,-0.892,-0.265,-0.152,-0.102,-0.037,-0.009,-0.005,0.077,-0.079,-0.254,-0.287,-0.346,,,,,,,,,,,,,,,,,,
3/8/07 0:00,-0.941,-0.281,-0.155,-0.104,-0.039,-0.012,-0.009,0.075,-0.08,-0.252,-0.286,-0.344,,,,,,,,,,,,,,,,,,
3/9/07 0:00,-0.995,-0.306,-0.163,-0.11,-0.045,-0.018,-0.016,0.068,-0.085,-0.256,-0.288,-0.347,,,,,,,,,,,,,,,,,,
3/10/07 0:00,-1.038,-0.326,-0.162,-0.111,-0.047,-0.018,-0.017,0.067,-0.082,-0.253,-0.285,-0.345,,,,,,,,,,,,,,,,,,
3/11/07 0:00,-1.085,-0.357,-0.17,-0.116,-0.052,-0.024,-0.022,0.062,-0.086,-0.256,-0.288,-0.347,,,,,,,,,,,,,,,,,,
3/12/07 0:00,-1.122,-0.382,-0.169,-0.117,-0.053,-0.025,-0.023,0.061,-0.085,-0.252,-0.285,-0.345,,,,,,,,,,,,,,,,,,
3/13/07 0:00,-1.159,-0.412,-0.174,-0.12,-0.057,-0.029,-0.028,0.057,-0.086,-0.253,-0.287,-0.346,,,,,,,,,,,,,,,,,,
3/14/07 0:00,-1.196,-0.444,-0.18,-0.127,-0.063,-0.037,-0.035,0.05,-0.091,-0.257,-0.29,-0.349,,,,,,,,,,,,,,,,,,
3/15/07 0:00,-1.223,-0.47,-0.182,-0.128,-0.063,-0.036,-0.035,0.049,-0.089,-0.254,-0.287,-0.347,,,,,,,,,,,,,,,,,,
3/16/07 0:00,-1.254,-0.506,-0.188,-0.135,-0.071,-0.042,-0.043,0.044,-0.094,-0.26,-0.291,-0.35,,,,,,,,,,,,,,,,,,
3/17/07 0:00,-1.288,-0.541,-0.195,-0.14,-0.077,-0.05,-0.049,0.036,-0.099,-0.262,-0.295,-0.353,,,,,,,,,,,,,,,,,,
3/18/07 0:00,-1.315,-0.572,-0.196,-0.139,-0.077,-0.051,-0.051,0.035,-0.097,-0.258,-0.292,-0.35,,,,,,,,,,,,,,,,,,
3/19/07 0:00,-1.349,-0.606,-0.205,-0.144,-0.08,-0.055,-0.054,0.03,-0.099,-0.259,-0.293,-0.351,,,,,,,,,,,,,,,,,,
3/20/07 0:00,-1.381,-0.638,-0.21,-0.147,-0.083,-0.057,-0.056,0.028,-0.099,-0.26,-0.294,-0.351,,,,,,,,,,,,,,,,,,
3/21/07 0:00,-1.41,-0.668,-0.218,-0.149,-0.087,-0.062,-0.062,0.025,-0.102,-0.26,-0.294,-0.351,,,,,,,,,,,,,,,,,,
3/22/07 0:00,-1.425,-0.692,-0.222,-0.146,-0.086,-0.059,-0.06,0.028,-0.099,-0.256,-0.29,-0.346,,,,,,,,,,,,,,,,,,
3/23/07 0:00,-1.446,-0.721,-0.231,-0.15,-0.088,-0.064,-0.065,0.022,-0.101,-0.258,-0.291,-0.347,,,,,,,,,,,,,,,,,,
3/24/07 0:00,-1.459,-0.744,-0.238,-0.15,-0.089,-0.064,-0.068,0.023,-0.098,-0.255,-0.288,-0.346,,,,,,,,,,,,,,,,,,
3/25/07 0:00,-1.464,-0.761,-0.244,-0.147,-0.088,-0.063,-0.066,0.024,-0.096,-0.251,-0.284,-0.341,,,,,,,,,,,,,,,,,,
3/26/07 0:00,-1.465,-0.777,-0.255,-0.148,-0.087,-0.063,-0.066,0.024,-0.093,-0.248,-0.281,-0.338,,,,,,,,,,,,,,,,,,
3/27/07 0:00,-1.461,-0.789,-0.263,-0.147,-0.084,-0.062,-0.065,0.025,-0.091,-0.244,-0.277,-0.334,,,,,,,,,,,,,,,,,,
3/28/07 0:00,-1.473,-0.815,-0.289,-0.16,-0.1,-0.075,-0.079,0.011,-0.104,-0.256,-0.29,-0.348,,,,,,,,,,,,,,,,,,
3/29/07 0:00,-1.469,-0.822,-0.296,-0.157,-0.097,-0.072,-0.077,0.013,-0.1,-0.253,-0.284,-0.342,,,,,,,,,,,,,,,,,,
3/30/07 0:00,-1.478,-0.841,-0.316,-0.164,-0.104,-0.08,-0.085,0.007,-0.105,-0.256,-0.29,-0.347,,,,,,,,,,,,,,,,,,
3/31/07 0:00,-1.481,-0.85,-0.325,-0.161,-0.102,-0.077,-0.083,0.008,-0.103,-0.252,-0.286,-0.345,,,,,,,,,,,,,,,,,,
4/1/07 0:00,-1.488,-0.864,-0.34,-0.163,-0.105,-0.081,-0.086,0.005,-0.103,-0.253,-0.287,-0.345,,,,,,,,,,,,,,,,,,
4/2/07 0:00,-1.493,-0.879,-0.355,-0.165,-0.107,-0.084,-0.09,-0.001,-0.107,-0.254,-0.288,-0.346,,,,,,,,,,,,,,,,,,
4/3/07 0:00,-1.494,-0.887,-0.364,-0.164,-0.106,-0.084,-0.089,0,-0.104,-0.252,-0.286,-0.343,,,,,,,,,,,,,,,,,,
4/4/07 0:00,-1.497,-0.907,-0.389,-0.175,-0.118,-0.094,-0.103,-0.012,-0.115,-0.262,-0.294,-0.353,,,,,,,,,,,,,,,,,,
4/5/07 0:00,-1.465,-0.902,-0.397,-0.171,-0.112,-0.089,-0.097,-0.008,-0.109,-0.254,-0.286,-0.343,,,,,,,,,,,,,,,,,,
4/6/07 0:00,-1.442,-0.896,-0.402,-0.168,-0.11,-0.088,-0.095,-0.007,-0.106,-0.251,-0.285,-0.342,,,,,,,,,,,,,,,,,,
4/7/07 0:00,-1.411,-0.89,-0.412,-0.17,-0.113,-0.093,-0.1,-0.011,-0.107,-0.253,-0.285,-0.343,,,,,,,,,,,,,,,,,,
4/8/07 0:00,-1.374,-0.877,-0.419,-0.172,-0.114,-0.092,-0.1,-0.013,-0.109,-0.251,-0.284,-0.342,,,,,,,,,,,,,,,,,,
4/9/07 0:00,-1.34,-0.868,-0.429,-0.181,-0.124,-0.101,-0.109,-0.022,-0.115,-0.259,-0.293,-0.35,,,,,,,,,,,,,,,,,,
4/10/07 0:00,-1.287,-0.843,-0.427,-0.175,-0.119,-0.097,-0.106,-0.017,-0.109,-0.252,-0.286,-0.343,,,,,,,,,,,,,,,,,,
4/11/07 0:00,-1.247,-0.83,-0.438,-0.186,-0.128,-0.106,-0.116,-0.029,-0.118,-0.259,-0.293,-0.351,,,,,,,,,,,,,,,,,,
4/12/07 0:00,-1.194,-0.801,-0.43,-0.181,-0.125,-0.103,-0.112,-0.024,-0.113,-0.254,-0.287,-0.347,,,,,,,,,,,,,,,,,,
4/13/07 0:00,-1.145,-0.778,-0.425,-0.181,-0.125,-0.104,-0.114,-0.025,-0.112,-0.254,-0.287,-0.346,,,,,,,,,,,,,,,,,,
4/14/07 0:00,-1.106,-0.761,-0.43,-0.188,-0.132,-0.111,-0.121,-0.034,-0.119,-0.262,-0.294,-0.352,,,,,,,,,,,,,,,,,,
4/15/07 0:00,-1.06,-0.736,-0.423,-0.188,-0.132,-0.111,-0.123,-0.035,-0.119,-0.258,-0.292,-0.351,,,,,,,,,,,,,,,,,,
4/16/07 0:00,-1.012,-0.706,-0.408,-0.181,-0.127,-0.106,-0.116,-0.03,-0.112,-0.252,-0.285,-0.342,,,,,,,,,,,,,,,,,,
4/17/07 0:00,-0.976,-0.686,-0.405,-0.183,-0.128,-0.11,-0.121,-0.032,-0.114,-0.254,-0.286,-0.344,,,,,,,,,,,,,,,,,,
4/18/07 0:00,-0.947,-0.671,-0.404,-0.189,-0.135,-0.114,-0.126,-0.04,-0.119,-0.257,-0.292,-0.347,,,,,,,,,,,,,,,,,,
4/19/07 0:00,-0.917,-0.655,-0.4,-0.19,-0.136,-0.117,-0.127,-0.042,-0.12,-0.257,-0.292,-0.347,,,,,,,,,,,,,,,,,,
4/20/07 0:00,-0.886,-0.637,-0.394,-0.191,-0.136,-0.117,-0.129,-0.043,-0.121,-0.257,-0.291,-0.347,,,,,,,,,,,,,,,,,,
4/21/07 0:00,-0.858,-0.62,-0.388,-0.189,-0.135,-0.117,-0.128,-0.043,-0.12,-0.254,-0.288,-0.344,,,,,,,,,,,,,,,,,,
4/22/07 0:00,-0.834,-0.606,-0.384,-0.19,-0.137,-0.117,-0.13,-0.045,-0.119,-0.256,-0.288,-0.345,,,,,,,,,,,,,,,,,,
4/23/07 0:00,-0.814,-0.596,-0.384,-0.196,-0.141,-0.123,-0.136,-0.051,-0.124,-0.259,-0.291,-0.348,,,,,,,,,,,,,,,,,,
4/24/07 0:00,-0.796,-0.586,-0.382,-0.199,-0.145,-0.127,-0.138,-0.056,-0.128,-0.262,-0.293,-0.351,,,,,,,,,,,,,,,,,,
4/25/07 0:00,-0.777,-0.574,-0.378,-0.199,-0.145,-0.127,-0.141,-0.057,-0.126,-0.261,-0.293,-0.35,,,,,,,,,,,,,,,,,,
4/26/07 0:00,-0.758,-0.563,-0.374,-0.201,-0.146,-0.128,-0.142,-0.059,-0.127,-0.261,-0.293,-0.351,,,,,,,,,,,,,,,,,,
4/27/07 0:00,-0.743,-0.555,-0.371,-0.202,-0.149,-0.131,-0.144,-0.063,-0.13,-0.263,-0.294,-0.353,,,,,,,,,,,,,,,,,,
4/28/07 0:00,-0.719,-0.536,-0.358,-0.193,-0.139,-0.122,-0.135,-0.054,-0.121,-0.252,-0.285,-0.342,,,,,,,,,,,,,,,,,,
4/29/07 0:00,-0.704,-0.526,-0.355,-0.193,-0.139,-0.122,-0.136,-0.055,-0.12,-0.252,-0.285,-0.342,,,,,,,,,,,,,,,,,,
4/30/07 0:00,-0.69,-0.517,-0.352,-0.195,-0.141,-0.123,-0.138,-0.057,-0.121,-0.253,-0.285,-0.341,,,,,,,,,,,,,,,,,,
5/1/07 0:00,-0.678,-0.509,-0.347,-0.193,-0.14,-0.122,-0.138,-0.057,-0.119,-0.251,-0.283,-0.34,,,,,,,,,,,,,,,,,,
5/2/07 0:00,-0.67,-0.505,-0.349,-0.198,-0.145,-0.129,-0.143,-0.062,-0.125,-0.255,-0.289,-0.346,,,,,,,,,,,,,,,,,,
5/3/07 0:00,-0.664,-0.503,-0.35,-0.204,-0.151,-0.134,-0.149,-0.07,-0.13,-0.26,-0.293,-0.35,,,,,,,,,,,,,,,,,,
5/4/07 0:00,-0.651,-0.494,-0.346,-0.202,-0.149,-0.133,-0.149,-0.068,-0.129,-0.257,-0.29,-0.347,,,,,,,,,,,,,,,,,,
5/5/07 0:00,-0.641,-0.49,-0.344,-0.204,-0.152,-0.136,-0.151,-0.071,-0.13,-0.258,-0.292,-0.349,,,,,,,,,,,,,,,,,,
5/6/07 0:00,-0.628,-0.482,-0.34,-0.202,-0.15,-0.133,-0.15,-0.07,-0.127,-0.257,-0.289,-0.346,,,,,,,,,,,,,,,,,,
5/7/07 0:00,-0.618,-0.474,-0.337,-0.202,-0.149,-0.132,-0.149,-0.071,-0.127,-0.257,-0.289,-0.345,,,,,,,,,,,,,,,,,,
5/8/07 0:00,-0.596,-0.454,-0.321,-0.188,-0.136,-0.12,-0.136,-0.058,-0.114,-0.241,-0.275,-0.332,,,,,,,,,,,,,,,,,,
5/9/07 0:00,-0.597,-0.457,-0.329,-0.198,-0.147,-0.131,-0.148,-0.068,-0.124,-0.251,-0.286,-0.342,,,,,,,,,,,,,,,,,,
5/10/07 0:00,-0.591,-0.455,-0.331,-0.201,-0.15,-0.134,-0.151,-0.072,-0.128,-0.254,-0.289,-0.345,,,,,,,,,,,,,,,,,,
5/11/07 0:00,-0.58,-0.446,-0.324,-0.198,-0.147,-0.132,-0.149,-0.072,-0.124,-0.252,-0.285,-0.342,,,,,,,,,,,,,,,,,,
5/12/07 0:00,-0.576,-0.445,-0.326,-0.202,-0.151,-0.136,-0.153,-0.077,-0.128,-0.254,-0.289,-0.346,,,,,,,,,,,,,,,,,,
5/13/07 0:00,-0.581,-0.452,-0.336,-0.214,-0.164,-0.148,-0.165,-0.089,-0.141,-0.267,-0.3,-0.358,,,,,,,,,,,,,,,,,,
5/14/07 0:00,-0.565,-0.437,-0.323,-0.205,-0.153,-0.139,-0.157,-0.08,-0.13,-0.257,-0.29,-0.347,,,,,,,,,,,,,,,,,,
5/15/07 0:00,-0.555,-0.431,-0.319,-0.203,-0.153,-0.136,-0.155,-0.08,-0.128,-0.254,-0.287,-0.344,,,,,,,,,,,,,,,,,,
5/16/07 0:00,-0.552,-0.431,-0.319,-0.207,-0.156,-0.14,-0.159,-0.082,-0.131,-0.258,-0.289,-0.345,,,,,,,,,,,,,,,,,,
5/17/07 0:00,-0.553,-0.435,-0.324,-0.213,-0.163,-0.147,-0.166,-0.091,-0.138,-0.262,-0.295,-0.352,,,,,,,,,,,,,,,,,,
5/18/07 0:00,-0.542,-0.424,-0.319,-0.209,-0.159,-0.144,-0.163,-0.087,-0.134,-0.259,-0.292,-0.349,,,,,,,,,,,,,,,,,,
5/19/07 0:00,-0.531,-0.414,-0.309,-0.204,-0.153,-0.138,-0.157,-0.082,-0.127,-0.252,-0.285,-0.341,,,,,,,,,,,,,,,,,,
5/20/07 0:00,-0.529,-0.415,-0.312,-0.207,-0.157,-0.143,-0.163,-0.085,-0.131,-0.256,-0.289,-0.346,,,,,,,,,,,,,,,,,,
5/21/07 0:00,-0.528,-0.416,-0.313,-0.212,-0.161,-0.146,-0.167,-0.091,-0.135,-0.259,-0.291,-0.349,,,,,,,,,,,,,,,,,,
5/22/07 0:00,-0.524,-0.414,-0.314,-0.213,-0.163,-0.148,-0.168,-0.093,-0.136,-0.261,-0.292,-0.35,,,,,,,,,,,,,,,,,,
5/23/07 0:00,-0.517,-0.408,-0.31,-0.211,-0.161,-0.148,-0.167,-0.093,-0.135,-0.259,-0.291,-0.348,,,,,,,,,,,,,,,,,,
5/24/07 0:00,-0.515,-0.407,-0.312,-0.214,-0.164,-0.15,-0.172,-0.096,-0.139,-0.262,-0.294,-0.351,,,,,,,,,,,,,,,,,,
5/25/07 0:00,-0.512,-0.406,-0.311,-0.216,-0.166,-0.152,-0.173,-0.098,-0.139,-0.262,-0.295,-0.353,,,,,,,,,,,,,,,,,,
5/26/07 0:00,-0.506,-0.402,-0.309,-0.214,-0.166,-0.152,-0.174,-0.098,-0.14,-0.26,-0.292,-0.352,,,,,,,,,,,,,,,,,,
5/27/07 0:00,-0.503,-0.401,-0.308,-0.216,-0.167,-0.153,-0.175,-0.1,-0.14,-0.261,-0.294,-0.353,,,,,,,,,,,,,,,,,,
5/28/07 0:00,-0.503,-0.402,-0.311,-0.222,-0.172,-0.158,-0.181,-0.105,-0.146,-0.265,-0.298,-0.357,,,,,,,,,,,,,,,,,,
5/29/07 0:00,-0.494,-0.391,-0.304,-0.214,-0.164,-0.151,-0.173,-0.099,-0.137,-0.261,-0.293,-0.348,,,,,,,,,,,,,,,,,,
5/30/07 0:00,-0.487,-0.383,-0.299,-0.21,-0.161,-0.147,-0.17,-0.095,-0.133,-0.256,-0.288,-0.345,,,,,,,,,,,,,,,,,,
5/31/07 0:00,-0.49,-0.39,-0.306,-0.219,-0.17,-0.156,-0.178,-0.105,-0.142,-0.264,-0.296,-0.353,,,,,,,,,,,,,,,,,,
6/1/07 0:00,-0.485,-0.386,-0.303,-0.218,-0.169,-0.156,-0.179,-0.103,-0.141,-0.263,-0.296,-0.353,,,,,,,,,,,,,,,,,,
6/2/07 0:00,-0.476,-0.378,-0.297,-0.212,-0.164,-0.15,-0.173,-0.1,-0.137,-0.256,-0.288,-0.346,,,,,,,,,,,,,,,,,,